Location: Brantley
(31.5822°N, 86.2569°W)
Time: 05:54:20
(UTC+00:00)

Injun/Solrad 3 - Visible Passes

Search period start: 18 February 2026 00:00
Search period end: 28 February 2026 00:00
Orbit: 873 x 983 km, 66.8° (Epoch: 17 February)

Date Brightness Start Highest point End Pass type
(mag) Time Alt. Az. Time Alt. Az. Time Alt. Az.
18 Feb 9.4 01:07:23 10° N 01:10:26 19° NE 01:10:26 19° NE visible
18 Feb 10.2 02:52:41 10° NW 02:54:07 18° NW 02:54:07 18° NW visible
19 Feb 8.9 01:17:45 10° N 01:21:59 30° NE 01:21:59 30° NE visible
19 Feb 10.3 03:04:05 10° NW 03:05:40 17° NW 03:05:40 17° NW visible
20 Feb 8.2 01:28:24 10° NNW 01:33:42 48° NE 01:33:42 48° NE visible
20 Feb 10.4 03:15:56 10° WNW 03:17:24 15° WNW 03:17:24 15° WNW visible
21 Feb 7.8 01:39:16 10° NNW 01:45:31 79° ENE 01:45:37 79° ENE visible
21 Feb 10.7 03:28:49 10° W 03:29:20 11° W 03:29:20 11° W visible
22 Feb 9.3 00:05:24 10° N 00:09:35 18° NE 00:13:50 10° E visible
22 Feb 8.2 01:50:19 10° NNW 01:56:31 66° WSW 01:57:48 53° SSW visible
23 Feb 8.8 00:15:37 10° N 00:20:54 28° ENE 00:26:16 10° ESE visible
23 Feb 9.0 02:01:38 10° NW 02:07:26 41° WSW 02:10:21 26° SSW visible
24 Feb 8.3 00:26:12 10° N 00:32:07 43° ENE 00:38:07 10° SE visible
24 Feb 9.9 02:13:17 10° NW 02:18:17 25° WSW 02:23:21 10° SSW visible
25 Feb 7.9 00:36:59 10° NNW 00:43:13 68° ENE 00:49:34 10° SSE visible
25 Feb 10.5 02:25:41 10° WNW 02:29:04 15° WSW 02:32:30 10° SW visible
26 Feb 8.1 00:47:59 10° NNW 00:54:15 77° WSW 01:00:37 10° SSE visible
27 Feb 9.0 00:59:11 10° NW 01:05:11 48° WSW 01:11:16 10° S visible
